Date String (YYYY-MM-DD hh:mm:ss) UTC,Instrument flags,absolute air pressure of the measurement (hPa),sample flow rate (lpm),inlet stack bypass flow (lpm),air temperature of the measurement (°C),ambient temperature measured by the external sensor (°C),aerosol sample conditioner tube jacket temperature (°C),OPC LED temperature (°C),internal box temperature (°C),relative humidity of the measurement (%),span deviation,mass concentration of particles derived from Lorenz-Mie calculation of OPC scattering (μg/m³),mass concentration of particles derived from Lorenz-Mie calculation of OPC scattering (μg/m³),mass concentration of particles derived from Lorenz-Mie calculation of OPC scattering (μg/m³)
DateTimeUTC,F1_M11,P_M11,Q1_M11,Q2_M11,T1_M11,T2_M11,T3_M11,T4_M11,T5_M11,U1_M11,ZSPAN_M11,X0_M11,X2_M11,X1_M11
2024-03-19 05:00:00,SystemResetWarning,0831.2,5.00,000.00,021.4,020.5,000.0,030.1,023.2,14.7,0000.0,0003.97,0001.62,0001.03
2024-03-19 05:01:00,SystemResetWarning,0831.2,5.00,000.00,021.4,020.5,000.0,030.1,023.2,14.9,0000.0,0003.91,0001.60,0001.02
2024-03-19 05:02:00,SystemResetWarning,0831.2,5.00,000.00,021.4,020.5,000.0,030.1,023.2,15.0,0000.0,0003.83,0001.58,0001.03
2024-03-19 05:03:00,SystemResetWarning,0831.2,4.99,000.00,021.4,020.5,000.0,030.1,023.2,15.0,0000.0,0003.83,0001.59,0001.05
2024-03-19 05:04:00,SystemResetWarning,0831.2,5.00,000.00,021.4,020.5,000.0,030.0,023.2,15.0,0000.0,0003.81,0001.58,0001.04
2024-03-19 05:05:00,SystemResetWarning,0831.2,5.00,000.00,021.3,020.5,000.0,030.0,023.1,14.8,0000.0,0003.35,0001.59,0001.03
2024-03-19 05:06:00,SystemResetWarning,0831.2,4.99,000.00,021.3,020.5,000.0,030.0,023.1,14.7,0000.0,0002.90,0001.55,0001.02
2024-03-19 05:07:00,SystemResetWarning,0831.2,5.00,000.00,021.3,020.5,000.0,030.0,023.1,14.8,0000.0,0002.91,0001.56,0001.03
2024-03-19 05:08:00,SystemResetWarning,0831.2,5.00,000.00,021.3,020.5,000.0,030.0,023.1,14.8,0000.0,0003.16,0001.55,0001.03
2024-03-19 05:09:00,SystemResetWarning,0831.2,4.99,000.00,021.3,020.4,000.0,030.0,023.1,14.9,0000.0,0003.05,0001.52,0001.03
2024-03-19 05:10:00,SystemResetWarning,0831.2,5.00,000.00,021.3,020.4,000.0,030.0,023.1,14.9,0000.0,0003.37,0001.58,0001.04
2024-03-19 05:11:00,SystemResetWarning,0831.2,5.00,000.00,021.3,020.4,000.0,030.0,023.1,14.9,0000.0,0003.41,0001.58,0001.03
2024-03-19 05:12:00,SystemResetWarning,0831.2,5.00,000.00,021.3,020.4,000.0,030.0,023.1,14.8,0000.0,0003.52,0001.62,0001.01
2024-03-19 05:13:00,SystemResetWarning,0831.2,5.01,000.00,021.3,020.4,000.0,029.9,023.1,14.8,0000.0,0003.50,0001.63,0000.99
2024-03-19 05:14:00,SystemResetWarning,0831.2,5.00,000.00,021.3,020.4,000.0,029.9,023.1,14.8,0000.0,0003.57,0001.64,0000.96
2024-03-19 05:15:00,SystemResetWarning,0831.2,5.00,000.00,021.3,020.4,000.0,029.9,023.1,14.7,0000.0,0003.71,0001.69,0000.96
2024-03-19 05:16:00,SystemResetWarning,0831.2,5.00,000.00,021.2,020.4,000.0,029.9,023.0,14.7,0000.0,0003.61,0001.65,0000.95
2024-03-19 05:17:00,SystemResetWarning,0831.2,5.00,000.00,021.2,020.4,000.0,029.9,023.0,14.8,0000.0,0003.47,0001.62,0000.93
2024-03-19 05:18:00,SystemResetWarning,0831.2,5.00,000.00,021.2,020.3,000.0,029.9,023.0,14.7,0000.0,0003.58,0001.64,0000.91
2024-03-19 05:19:00,SystemResetWarning,0831.2,4.99,000.00,021.2,020.3,000.0,029.9,023.0,14.7,0000.0,0003.43,0001.63,0000.90
2024-03-19 05:20:00,SystemResetWarning,0831.2,5.00,000.00,021.2,020.3,000.0,029.9,023.0,14.7,0000.0,0003.32,0001.62,0000.89
2024-03-19 05:21:00,SystemResetWarning,0831.1,4.99,000.00,021.2,020.3,000.0,029.9,023.0,14.6,0000.0,0003.02,0001.57,0000.87
2024-03-19 05:22:00,SystemResetWarning,0831.1,5.00,000.00,021.2,020.3,000.0,029.9,023.0,14.6,0000.0,0002.95,0001.58,0000.86
2024-03-19 05:23:00,SystemResetWarning,0831.1,5.00,000.00,021.2,020.3,000.0,029.8,023.0,14.5,0000.0,0002.99,0001.61,0000.86
2024-03-19 05:24:00,SystemResetWarning,0831.1,5.00,000.00,021.2,020.3,000.0,029.8,023.0,14.4,0000.0,0003.25,0001.64,0000.87
2024-03-19 05:25:00,SystemResetWarning,0831.1,5.00,000.00,021.2,020.3,000.0,029.8,022.9,14.6,0000.0,0003.38,0001.64,0000.87
2024-03-19 05:26:00,SystemResetWarning,0831.1,5.00,000.00,021.1,020.3,000.0,029.8,022.9,14.8,0000.0,0003.55,0001.67,0000.87
2024-03-19 05:27:00,SystemResetWarning,0831.1,5.01,000.00,021.1,020.3,000.0,029.8,022.9,14.7,0000.0,0003.66,0001.69,0000.86
2024-03-19 05:28:00,SystemResetWarning,0831.1,5.00,000.00,021.1,020.3,000.0,029.8,022.9,14.5,0000.0,0003.83,0001.76,0000.87
2024-03-19 05:29:00,SystemResetWarning,0831.2,4.99,000.00,021.1,020.3,000.0,029.8,022.9,14.5,0000.0,0003.68,0001.73,0000.87
2024-03-19 05:30:00,SystemResetWarning,0831.1,5.00,000.00,021.1,020.3,000.0,029.7,022.9,14.6,0000.0,0003.70,0001.75,0000.87
2024-03-19 05:31:00,SystemResetWarning,0831.2,5.02,000.00,021.1,020.3,000.0,029.7,022.9,14.9,0000.0,0003.83,0001.81,0000.87
2024-03-19 05:32:00,SystemResetWarning,0831.2,4.99,000.00,021.1,020.2,000.0,029.7,022.9,14.8,0000.0,0003.91,0001.82,0000.87
2024-03-19 05:33:00,SystemResetWarning,0831.1,4.99,000.00,021.1,020.2,000.0,029.7,022.9,15.1,0000.0,0004.38,0001.79,0000.86
2024-03-19 05:34:00,SystemResetWarning,0831.1,5.00,000.00,021.1,020.2,000.0,029.7,022.9,15.1,0000.0,0004.50,0001.74,0000.86
2024-03-19 05:35:00,SystemResetWarning,0831.1,5.01,000.00,021.1,020.2,000.0,029.7,022.9,14.8,0000.0,0004.36,0001.70,0000.86
2024-03-19 05:36:00,SystemResetWarning,0831.1,5.00,000.00,021.0,020.2,000.0,029.7,022.8,14.4,0000.0,0004.21,0001.68,0000.86
2024-03-19 05:37:00,SystemResetWarning,0831.1,5.00,000.00,021.0,020.2,000.0,029.7,022.8,14.6,0000.0,0004.19,0001.67,0000.87
2024-03-19 05:38:00,SystemResetWarning,0831.1,5.00,000.00,021.0,020.2,000.0,029.7,022.8,14.7,0000.0,0004.17,0001.68,0000.88
2024-03-19 05:39:00,SystemResetWarning,0831.1,4.99,000.00,021.0,020.2,000.0,029.7,022.8,14.5,0000.0,0004.10,0001.65,0000.87
2024-03-19 05:40:00,SystemResetWarning,0831.1,5.00,000.00,021.0,020.2,000.0,029.6,022.8,14.7,0000.0,0004.12,0001.66,0000.87
2024-03-19 05:41:00,SystemResetWarning,0831.0,5.01,000.00,021.0,020.2,000.0,029.6,022.8,14.7,0000.0,0004.16,0001.66,0000.88
2024-03-19 05:42:00,SystemResetWarning,0831.1,5.01,000.00,021.0,020.1,000.0,029.6,022.8,14.7,0000.0,0004.00,0001.62,0000.89
2024-03-19 05:43:00,SystemResetWarning,0831.0,5.00,000.00,021.0,020.1,000.0,029.6,022.8,14.9,0000.0,0003.84,0001.58,0000.88
2024-03-19 05:44:00,SystemResetWarning,0831.0,5.00,000.00,021.0,020.1,000.0,029.6,022.8,15.0,0000.0,0003.61,0001.65,0000.90
2024-03-19 05:45:00,SystemResetWarning,0831.0,5.00,000.00,020.9,020.1,000.0,029.6,022.7,15.0,0000.0,0003.48,0001.72,0000.91
2024-03-19 05:46:00,SystemResetWarning,0831.0,5.00,000.00,020.9,020.1,000.0,029.6,022.7,14.9,0000.0,0003.96,0001.68,0000.91
2024-03-19 05:47:00,SystemResetWarning,0831.0,4.99,000.00,020.9,020.1,000.0,029.6,022.7,14.8,0000.0,0003.98,0001.67,0000.91
2024-03-19 05:48:00,SystemResetWarning,0831.0,5.00,000.00,020.9,020.1,000.0,029.6,022.7,14.8,0000.0,0003.82,0001.64,0000.90
2024-03-19 05:49:00,SystemResetWarning,0831.0,5.01,000.00,020.9,020.1,000.0,029.6,022.7,14.7,0000.0,0003.73,0001.64,0000.91
2024-03-19 05:50:00,SystemResetWarning,0831.0,5.01,000.00,020.9,020.1,000.0,029.5,022.7,14.6,0000.0,0003.76,0001.64,0000.91
2024-03-19 05:51:00,SystemResetWarning,0830.9,5.01,000.00,020.9,020.1,000.0,029.5,022.7,14.5,0000.0,0003.93,0001.67,0000.91
2024-03-19 05:52:00,SystemResetWarning,0830.9,5.00,000.00,020.9,020.1,000.0,029.5,022.7,14.6,0000.0,0004.02,0001.70,0000.90
2024-03-19 05:53:00,SystemResetWarning,0831.0,4.99,000.00,020.9,020.0,000.0,029.5,022.6,14.7,0000.0,0004.04,0001.71,0000.91
2024-03-19 05:54:00,SystemResetWarning,0830.9,4.99,000.00,020.9,020.0,000.0,029.5,022.6,14.6,0000.0,0004.21,0001.74,0000.91
2024-03-19 05:55:00,SystemResetWarning,0830.9,5.00,000.00,020.8,020.0,000.0,029.5,022.6,14.5,0000.0,0004.24,0001.70,0000.90
2024-03-19 05:56:00,SystemResetWarning,0830.9,5.00,000.00,020.8,020.0,000.0,029.5,022.6,14.2,0000.0,0004.36,0001.68,0000.88
2024-03-19 05:57:00,SystemResetWarning,0830.9,5.01,000.00,020.8,020.0,000.0,029.5,022.6,14.4,0000.0,0003.98,0001.73,0000.88
2024-03-19 05:58:00,SystemResetWarning,0830.9,5.01,000.00,020.8,020.0,000.0,029.5,022.6,14.6,0000.0,0004.01,0001.79,0000.88
2024-03-19 05:59:00,SystemResetWarning,0830.9,4.99,000.00,020.8,020.0,000.0,029.4,022.6,14.6,0000.0,0003.91,0001.73,0000.88
